Location: Hofret T�drei�a
(16.4684°N, 9.2658°W)
Time: 13:41:42
(UTC+00:00)

Daily predictions for brighter satellites

Satellite Brightness Start Highest point End
(mag) Time Altitude Azimuth Time Altitude Azimuth Time Altitude Azimuth
Intelsat 5-3 Rocket 2.7 18:49:09 10° WNW 18:52:20 82° NNE 18:59:39 10° ESE
Cosmos 1816 Rocket 4.5 18:48:59 10° N 18:55:06 69° E 19:01:16 10° SSE
YAOGAN 1 3.8 18:52:01 10° ESE 18:55:14 21° ENE 18:58:26 10° NNE
Palapa B4 Rocket 4.0 18:50:37 10° W 18:55:29 76° N 19:03:23 10° ENE
Cosmos 2263 Rocket 4.3 18:51:02 10° SW 18:55:54 31° WNW 19:00:47 10° N
USA 116 4.0 18:52:01 10° NNE 18:55:54 54° ESE 19:00:17 10° S
CZ-2C R/B 4.3 18:53:59 10° ENE 18:56:34 13° E 18:59:09 10° SE
SL-24 R/B 4.3 18:54:32 10° SSE 18:58:41 49° ENE 19:02:52 10° N
Cosmos 372 Rocket 4.0 18:54:36 10° S 18:59:46 66° ESE 19:04:58 10° NNE
Cosmos 1844 Rocket 3.1 18:57:11 10° S 19:02:17 38° ESE 19:07:22 10° NE
SL-16 R/B 2.8 19:01:09 10° NNW 19:06:42 61° WSW 19:12:15 10° S
Tsikada Rocket 3.9 19:00:45 10° N 19:06:53 76° E 19:13:05 10° S
USA 234 3.3 19:03:12 10° NE 19:09:39 60° SE 19:16:05 10° SSW
NOSS 3-4 (A) 4.2 19:05:22 10° SSE 19:10:11 26° ESE 19:14:58 10° NE
NOSS 3-4 (C) 4.2 19:05:31 10° SSE 19:10:18 26° ESE 19:15:03 10° ENE
MOS 1 Rocket 3.4 19:08:20 10° NNE 19:12:21 40° E 19:16:22 10° S
ATLAS 5 CENTAUR R/B 0.7 19:11:44 10° WNW 19:13:27 33° N 19:15:29 14° ENE
Cosmos 1782 Rocket 4.2 19:10:45 10° SSW 19:15:03 60° W 19:19:24 10° N
GP-B 3.9 19:11:58 10° N 19:16:18 56° W 19:20:38 10° SSW
Cosmos 2150 Rocket 4.1 19:12:39 10° S 19:17:48 57° ESE 19:23:03 10° NNE
Cosmos 1125 Rocket 4.0 19:17:58 10° SSE 19:22:48 37° E 19:27:40 10° NE
Cosmos 2151 Rocket 4.3 19:19:22 10° SSE 19:23:14 30° E 19:27:07 10° NNE
CZ-2D R/B 3.3 19:23:12 10° S 19:27:04 82° W 19:30:57 10° NNW
Cosmos 1437 2.8 19:27:27 10° N 19:30:18 43° E 19:32:07 19° SSE
Cosmos 1943 3.8 19:25:41 10° N 19:30:48 35° ENE 19:34:27 17° SE
ATLAS 2AS CENTAUR R/B 3.3 19:24:49 10° S 19:31:55 43° ESE 19:39:17 10° NE
ASTRO E2 4.5 19:29:05 10° W 19:32:25 26° SSW 19:35:45 10° SSE
CSL-04 Rocket 4.0 19:27:29 10° SE 19:32:28 41° ENE 19:37:31 10° N
Cosmos 2112 Rocket 3.9 19:28:47 10° N 19:34:00 72° ENE 19:39:14 10° SSE
Cosmos 1939 Rocket 4.3 19:32:28 10° S 19:36:18 41° W 19:40:11 10° NNW
Cosmos 1680 Rocket 3.5 19:31:55 10° NNW 19:37:09 85° WSW 19:42:25 10° S
Cosmos 1072 Rocket 4.4 19:33:19 10° S 19:39:29 87° E 19:45:45 10° N
Longmarch 3A Rocket 3.7 19:38:32 10° N 19:39:40 12° NNE 19:40:14 12° NNE
Cosmos 1900 4.3 19:34:53 10° NNW 19:40:01 79° ENE 19:45:03 10° SSE
Cosmos 158 Rocket 4.3 19:37:13 10° NNW 19:42:16 64° WSW 19:47:11 10° S
Cosmos 2034 Rocket 4.0 19:39:53 10° S 19:46:07 59° E 19:52:22 10° NNE
H-2A R/B 2.0 19:47:00 18° SSE 19:50:26 52° ENE 19:55:15 10° N
Cosmos 1603 3.5 19:46:51 10° NNW 19:52:27 73° ENE 19:56:56 16° SSE
Cosmos 1975 Rocket 3.0 19:50:08 10° N 19:54:25 81° W 19:58:44 10° S
Palapa 6 Rocket 3.3 19:52:09 10° SW 19:55:26 38° SSE 19:55:26 38° SSE
Meteor 1-21 4.3 19:51:59 10° N 19:57:34 77° W 20:03:09 10° S
Ariane H10 4.4 19:43:17 10° W 19:58:49 37° SSW 20:02:50 21° SSE
Centaur AC-119 2.5 19:57:40 10° WSW 20:01:04 44° SW 20:01:04 44° SW
ARGOS 2.9 20:16:14 64° SE 20:17:00 76° ENE 20:22:20 10° N
SEDSat Delta rocket 3.1 20:12:34 10° WNW 20:17:36 84° W 20:17:36 84° W
CZ-4 R/B 4.1 20:15:32 10° SW 20:18:37 20° W 20:21:43 10° NW
GPS 2-17 Rocket1 3.3 20:17:47 10° W 20:22:00 66° NW 20:22:00 66° NW
CZ-2C R/B 4.3 20:21:43 10° SSW 20:26:21 39° W 20:31:13 10° NNW
GPS 2-04 Rocket1 4.5 20:27:36 10° WNW 20:30:28 29° WSW 20:30:28 29° WSW
CZ-2C R/B 3.6 20:31:26 10° N 20:36:47 47° WNW 20:42:08 10° SSW
Milstar 3 Cent rocket 4.3 21:13:49 10° WNW 21:16:32 20° NW 21:16:32 20° NW
